sat.trackr.live / text

‹ back to catalog

STARLINK-11528 [DTC]

NORAD 62521 · 2025-004L

PAYLOAD ACTIVE UNKNOWN

§ Identity

Operator
Country
US
Launch date
2025-01-08
Launch site
AFETR
Launch vehicle
Mass (kg)
RCS (m²)

Purposes: comms

External: N2YO · Heavens-Above · Gunter

§ Orbital elements

Epoch: 2026-05-24T22:04:02.597664Z

Period
91.67 min
Inclination
42.9982°
Eccentricity
0.0001739
Mean motion
15.70869201 rev/d
Perigee alt
355.2 km
Apogee alt
357.6 km
Semi-major
6,734.5 km
B*
1.1276e-3
RAAN
331.5816°
Arg perigee
256.6169°
Mean anomaly
103.4505°
Rev number
7,919

§ Raw data

STARLINK-11528 [DTC]1 62521U 25004L   26144.91947451  .00147002  00000+0  11276-2 0  99962 62521  42.9982 331.5816 0001739 256.6169 103.4505 15.70869201 79197

JSON: /api/v1/satellites/62521 · /tle

For live sub-satellite position, see the globe view (requires WebGL).

§ Visibility from observer

Set your observer location to see the next 7 days of passes ≥ 10°. The values pass through the URL so the page stays shareable.

No JS? Fill the form by hand. The geolocation button needs JavaScript.